Powrót do katalogu

EUROBIRD 4A

EUTELSAT W1

AktywnyŁącznośćGEO
NORAD 26487·PAYLOAD·🇪🇺 EU

Wystrzelony Sep 6, 2000 z Guiana Space Centre

Loading…

TLE

ŚwieżeSource: Space-Track

Epoka: Sep 14, 2026, 13:26 UTC

1 26487U 00052A   26257.56038564 -.00000049  00000-0  00000-0 0  9997
2 26487  11.5228  45.2135 0007462 269.5000 104.9902  0.98179643 94060

Śledź EUROBIRD 4A w czasie rzeczywistym z AllMySat

Download on the App Store